TimeCDT,TemperatureF,Dew PointF,Humidity,Sea Level PressureIn,VisibilityMPH,Wind Direction,Wind SpeedMPH,Gust SpeedMPH,PrecipitationIn,Events,Conditions,WindDirDegrees,DateUTC
12:15 AM,66.4,32.0,28,29.61,10.0,SW,9.2,-,N/A,,Mostly Cloudy,230,2013-04-06 05:15:00
12:35 AM,64.9,32.0,29,29.61,10.0,WSW,9.2,-,N/A,,Scattered Clouds,250,2013-04-06 05:35:00
12:55 AM,66.7,31.8,27,29.61,10.0,West,25.3,34.5,N/A,,Clear,260,2013-04-06 05:55:00
1:15 AM,67.3,30.9,26,29.62,10.0,West,21.9,34.5,N/A,,Clear,270,2013-04-06 06:15:00
1:35 AM,66.2,30.0,26,29.62,10.0,West,28.8,39.1,N/A,,Scattered Clouds,270,2013-04-06 06:35:00
1:55 AM,63.9,32.4,31,29.64,10.0,WNW,33.4,46.0,N/A,,Scattered Clouds,290,2013-04-06 06:55:00
2:15 AM,54.0,32.0,43,29.67,10.0,NW,20.7,36.8,N/A,,Scattered Clouds,310,2013-04-06 07:15:00
2:35 AM,53.2,32.0,44,29.69,10.0,NW,19.6,29.9,N/A,,Mostly Cloudy,310,2013-04-06 07:35:00
2:55 AM,52.7,32.0,45,29.69,10.0,NW,15.0,27.6,N/A,,Mostly Cloudy,310,2013-04-06 07:55:00
3:15 AM,52.3,33.4,49,29.69,10.0,NW,16.1,24.2,N/A,,Overcast,310,2013-04-06 08:15:00
3:35 AM,52.2,35.4,53,29.71,10.0,NW,13.8,24.2,N/A,Rain,Light Rain,310,2013-04-06 08:35:00
3:55 AM,51.4,37.0,58,29.69,10.0,NW,11.5,-,N/A,Rain,Light Rain,310,2013-04-06 08:55:00
4:15 AM,51.3,36.5,57,29.69,10.0,NW,10.4,17.3,N/A,,Mostly Cloudy,310,2013-04-06 09:15:00
4:35 AM,50.9,36.9,59,29.70,10.0,NW,12.7,-,N/A,,Scattered Clouds,310,2013-04-06 09:35:00
4:55 AM,50.4,37.6,62,29.71,10.0,WNW,9.2,18.4,N/A,,Scattered Clouds,300,2013-04-06 09:55:00
5:15 AM,49.6,37.6,63,29.72,10.0,WNW,12.7,17.3,N/A,,Scattered Clouds,300,2013-04-06 10:15:00
5:35 AM,48.7,38.1,67,29.72,10.0,WNW,10.4,-,N/A,,Scattered Clouds,300,2013-04-06 10:35:00
5:55 AM,48.4,38.3,68,29.72,10.0,NW,11.5,-,N/A,,Scattered Clouds,310,2013-04-06 10:55:00
6:15 AM,47.7,38.3,70,29.72,10.0,NW,9.2,-,N/A,,Scattered Clouds,310,2013-04-06 11:15:00
6:35 AM,46.8,37.0,69,29.72,10.0,WNW,12.7,-,N/A,,Clear,290,2013-04-06 11:35:00
6:55 AM,46.4,36.7,69,29.73,10.0,WNW,15.0,21.9,N/A,,Clear,300,2013-04-06 11:55:00
7:15 AM,46.8,37.4,70,29.73,10.0,WNW,13.8,-,N/A,,Mostly Cloudy,300,2013-04-06 12:15:00
7:35 AM,47.3,37.8,69,29.74,10.0,NW,12.7,21.9,N/A,,Scattered Clouds,310,2013-04-06 12:35:00
7:55 AM,47.3,38.1,70,29.74,10.0,NW,12.7,-,N/A,,Clear,310,2013-04-06 12:55:00
8:15 AM,48.9,38.5,67,29.74,10.0,WNW,12.7,21.9,N/A,,Clear,300,2013-04-06 13:15:00
8:35 AM,50.2,38.5,64,29.76,10.0,NW,16.1,25.3,N/A,,Scattered Clouds,310,2013-04-06 13:35:00
8:55 AM,52.2,38.3,59,29.75,10.0,NW,27.6,34.5,N/A,,Scattered Clouds,320,2013-04-06 13:55:00
9:15 AM,53.8,37.8,55,29.75,10.0,NNW,28.8,38.0,N/A,,Clear,330,2013-04-06 14:15:00
9:35 AM,54.9,37.8,53,29.77,10.0,NNW,26.5,42.6,N/A,,Scattered Clouds,340,2013-04-06 14:35:00
9:55 AM,53.2,37.9,56,29.78,10.0,NNW,25.3,35.7,N/A,,Scattered Clouds,340,2013-04-06 14:55:00
10:15 AM,55.2,38.3,53,29.78,10.0,NNW,25.3,34.5,N/A,,Clear,340,2013-04-06 15:15:00
10:35 AM,56.5,38.1,50,29.79,10.0,NW,20.7,31.1,N/A,,Clear,320,2013-04-06 15:35:00
10:55 AM,57.6,38.3,49,29.79,10.0,NW,18.4,27.6,N/A,,Scattered Clouds,320,2013-04-06 15:55:00
11:15 AM,58.3,37.9,47,29.79,10.0,NNW,15.0,24.2,N/A,,Scattered Clouds,340,2013-04-06 16:15:00
11:35 AM,59.9,36.5,42,29.80,10.0,NNW,21.9,31.1,N/A,,Clear,330,2013-04-06 16:35:00
11:55 AM,61.2,36.9,40,29.79,10.0,NNW,13.8,-,N/A,,Clear,330,2013-04-06 16:55:00
12:15 PM,63.1,35.4,36,29.79,10.0,NNW,18.4,27.6,N/A,,Clear,330,2013-04-06 17:15:00
12:35 PM,63.9,35.1,34,29.79,10.0,NW,16.1,20.7,N/A,,Scattered Clouds,310,2013-04-06 17:35:00
12:55 PM,64.4,33.6,32,29.77,10.0,NNW,17.3,25.3,N/A,,Scattered Clouds,340,2013-04-06 17:55:00
1:15 PM,66.7,33.3,29,29.77,10.0,NNW,13.8,24.2,N/A,,Scattered Clouds,340,2013-04-06 18:15:00
1:35 PM,66.0,32.2,28,29.77,10.0,NW,15.0,24.2,N/A,,Scattered Clouds,310,2013-04-06 18:35:00
1:55 PM,67.5,30.7,25,29.77,10.0,NNW,21.9,28.8,N/A,,Mostly Cloudy,330,2013-04-06 18:55:00
2:15 PM,69.6,30.7,24,29.77,10.0,NNW,17.3,23.0,N/A,,Mostly Cloudy,340,2013-04-06 19:15:00
2:35 PM,67.5,30.6,25,29.77,10.0,NNW,15.0,24.2,N/A,,Mostly Cloudy,330,2013-04-06 19:35:00
2:55 PM,68.7,25.7,20,29.77,10.0,NNW,23.0,28.8,N/A,,Scattered Clouds,330,2013-04-06 19:55:00
3:15 PM,68.5,26.8,21,29.77,10.0,NW,15.0,28.8,N/A,,Scattered Clouds,320,2013-04-06 20:15:00
3:35 PM,68.2,25.0,20,29.77,10.0,NW,16.1,27.6,N/A,,Mostly Cloudy,320,2013-04-06 20:35:00
3:55 PM,67.3,25.2,20,29.77,10.0,NW,17.3,31.1,N/A,,Scattered Clouds,320,2013-04-06 20:55:00
4:15 PM,68.0,23.9,19,29.77,10.0,NNW,17.3,33.4,N/A,,Scattered Clouds,330,2013-04-06 21:15:00
4:35 PM,68.5,23.9,19,29.77,10.0,NNW,21.9,25.3,N/A,,Mostly Cloudy,330,2013-04-06 21:35:00
4:55 PM,69.3,23.2,18,29.78,10.0,WNW,17.3,27.6,N/A,,Scattered Clouds,300,2013-04-06 21:55:00
5:15 PM,67.5,23.0,19,29.78,10.0,NNW,16.1,23.0,N/A,,Scattered Clouds,330,2013-04-06 22:15:00
5:35 PM,67.6,22.1,18,29.78,10.0,NNW,16.1,25.3,N/A,,Overcast,330,2013-04-06 22:35:00
5:55 PM,67.6,23.2,19,29.79,10.0,NNW,17.3,21.9,N/A,,Mostly Cloudy,330,2013-04-06 22:55:00
6:15 PM,67.1,23.4,19,29.79,10.0,NW,9.2,13.8,N/A,,Mostly Cloudy,320,2013-04-06 23:15:00
6:35 PM,66.2,23.9,20,29.79,10.0,NNW,6.9,-,N/A,,Mostly Cloudy,340,2013-04-06 23:35:00
6:55 PM,65.7,24.4,21,29.79,10.0,NNW,9.2,-,N/A,,Scattered Clouds,340,2013-04-06 23:55:00
7:15 PM,65.3,24.6,21,29.79,10.0,North,6.9,-,N/A,,Scattered Clouds,360,2013-04-07 00:15:00
7:35 PM,63.9,25.3,23,29.79,10.0,NNE,8.1,-,N/A,,Mostly Cloudy,20,2013-04-07 00:35:00
7:55 PM,62.4,25.7,25,29.79,10.0,NNE,3.5,-,N/A,,Scattered Clouds,20,2013-04-07 00:55:00
8:15 PM,61.0,25.3,26,29.79,10.0,Calm,Calm,-,N/A,,Clear,0,2013-04-07 01:15:00
8:35 PM,58.8,25.5,28,29.79,10.0,Calm,Calm,-,N/A,,Clear,0,2013-04-07 01:35:00
8:55 PM,59.2,25.5,28,29.80,10.0,Calm,Calm,-,N/A,,Clear,0,2013-04-07 01:55:00
9:15 PM,53.4,25.5,34,29.80,10.0,Calm,Calm,-,N/A,,Clear,0,2013-04-07 02:15:00
9:35 PM,53.8,25.3,33,29.81,10.0,Calm,Calm,-,N/A,,Clear,0,2013-04-07 02:35:00
9:55 PM,52.2,26.2,37,29.82,10.0,Calm,Calm,-,N/A,,Scattered Clouds,0,2013-04-07 02:55:00
10:15 PM,48.4,26.8,43,29.83,10.0,Calm,Calm,-,N/A,,Scattered Clouds,0,2013-04-07 03:15:00
10:35 PM,47.3,26.8,45,29.83,10.0,Calm,Calm,-,N/A,,Clear,0,2013-04-07 03:35:00
10:55 PM,45.7,27.3,49,29.83,10.0,Calm,Calm,-,N/A,,Clear,0,2013-04-07 03:55:00
11:15 PM,46.9,27.5,47,29.83,10.0,Calm,Calm,-,N/A,,Clear,0,2013-04-07 04:15:00
11:35 PM,45.7,27.5,49,29.84,10.0,Calm,Calm,-,N/A,,Scattered Clouds,0,2013-04-07 04:35:00
11:55 PM,44.8,27.7,51,29.84,10.0,Calm,Calm,-,N/A,,Scattered Clouds,0,2013-04-07 04:55:00